Accueil
METAR-TAF:

METAR-TAF

Aéroports :

Aéroport Sandro-Pertini de Turin Caselle

Turin, Italie

latitude: 45-13N, longitude: 007-39E, altitude: 301 m

Observation

Le bulletin a été fait il y a 12 minutes, à 05:50 UTC
Vent 1 kt de direction variable
Température 12°C
Humidité 82%
Pression 1012 hPa
Visibilité 10 km ou plus
pas de nuages en-dessous de 1500 mètres et pas de cumulonimbus.

METAR: LIMF 200550Z VRB01KT CAVOK 12/09 Q1012

Heure: 08:02 (06:02 UTC)

Prévision

Le bulletin a été fait il y a 1 heure et 2 minutes, à 05:00 UTC
Prévision valable du 20 à 06 UTC au 21 à 06 UTC
Vent 5 kt de direction variable
Visibilité 10 km ou plus
Nuages épars à une hauteur de 4000 ft

TAF: LIMF 200500Z 2006/2106 VRB05KT 9999 SCT040

Observations et prévisions météorologiques de plus de 4000 aéroports (messages METAR et TAF).

Les stations disponibles sont représentées par des disques jaunes et rouges sur la carte.

Passer la souris dessus pour voir le nom de la station.

Cliquer dessus pour voir les observations et prévisions météorologiques.

Pour changer de carte: cliquez sur les boutons verts avec une croix noire pour zoomer, sur le bouton vert avec un tiret pour effectuer un zoom arrière, ou sur les flèches vertes pour les cartes adjacentes.


METAR-TAF: